Regional Weather Roundup
Issued by NWS

Home | Current Version | Previous Version | Graphics & Text | Print | Product List | Glossary Off
Versions: 1 2 3 4 5 6 7 8 9 10 11 12 13 14 15 16 17 18 19 20 21 22 23 24 25 26 27 28 29 30 31 32 33 34 35 36 37 38 39 40 41 42 43 44 45 46 47 48 49 50

000
ASUS43 KDMX 291708
RWRIA

WEATHER ROUNDUP FOR IOWA
NATIONAL WEATHER SERVICE DES MOINES IA
1200 PM CDT THU SEP 29 2016

NOTE: "FAIR" INDICATES FEW OR NO CLOUDS BELOW 12,000 FEET WITH NO
SIGNIFICANT WEATHER AND/OR OBSTRUCTIONS TO VISIBILITY.

* - THESE STATIONS ARE NOT NWS STATIONS...THUS NOT UNDER NWS
QUALITY CONTROL.  THEY ALSO DO NOT REPORT WEATHER SUCH
AS PRECIPITATION OR FOG.

IAZ001>003-012>014-020>022-031>034-043>046-291800-
   NORTHWEST IOWA

CITY           SKY/WX    TMP DP  RH WIND       PRES   REMARKS
CARROLL *      MOSUNNY   63  52  67 N10       30.43F
CHEROKEE *     SUNNY     62  54  74 CALM      30.45F
DENISON *      SUNNY     61  52  72 NE7       30.43S
LE MARS *        N/A    N/A N/A N/A MISG        N/A
ORANGE CITY *  MOSUNNY   61  52  72 CALM      30.46F
SHELDON *      PTSUNNY   63  52  67 CALM      30.45S
SIOUX CITY     MOSUNNY   63  53  70 CALM      30.46F
SPENCER        MOSUNNY   63  52  67 E9        30.46S
STORM LAKE *   SUNNY     63  52  67 VRB6      30.45S
$$

IAZ055>058-069>071-079>083-090>094-291800-
   SOUTHWEST IOWA

CITY           SKY/WX    TMP DP  RH WIND       PRES   REMARKS
ATLANTIC *     SUNNY     63  50  63 N10       30.42F
AUDUBON *      SUNNY     63  54  72 NW7       30.44F
CLARINDA *       N/A     68  50  52 MISG      30.42F HAZE
COUNCIL BLFS * SUNNY     63  52  67 VRB3      30.43F
CRESTON *      SUNNY     64  48  55 N13G20    30.41F
HARLAN  *      SUNNY     63  52  67 VRB5G13   30.47S
LAMONI         SUNNY     65  51  60 N16       30.38F
RED OAK *      SUNNY     66  50  55 NE9       30.42S
SHENANDOAH *   SUNNY     66  50  55 N8        30.42F
$$

IAZ047>049-059>061-072>074-084-291800-
   CENTRAL IOWA

CITY           SKY/WX    TMP DP  RH WIND       PRES   REMARKS
AMES           SUNNY     65  55  70 N10       30.40F
ANKENY *         N/A    N/A N/A N/A MISG        N/A
BOONE *        MOSUNNY   61  54  77 N10G17    30.41S
CHARITON *       N/A     68  50  52 N14       30.36F
DES MOINES     MOSUNNY   68  50  52 N13G18    30.39S
GRINNELL*      SUNNY     68  50  53 N10       30.37F
KNOXVILLE *    SUNNY     66  48  52 NE12      30.35F
MARSHALLTOWN   SUNNY     66  51  58 N12       30.38S
NEWTON *       SUNNY     66  50  55 N14G22    30.37S
PELLA *        SUNNY     68  50  52 N10       30.37S
PERRY *          N/A     65  53  67 N10       30.42S
$$

IAZ004>006-015-016-023>025-035-036-291800-
   NORTH CENTRAL IOWA

CITY           SKY/WX    TMP DP  RH WIND       PRES   REMARKS
ALGONA *       CLOUDY    54  52  94 N8        30.47S
CLARION *      SUNNY     63  52  67 N9        30.43S
ESTHERVILLE    CLOUDY    55  53  93 N8        30.47S
FORT DODGE *   CLOUDY    55  52  88 N5        30.46S
MASON CITY     SUNNY     65  48  54 NE14G20   30.44S
FOREST CITY *    N/A     64  50  59 N9        30.44S
WEBSTER CITY * PTSUNNY   61  54  77 N10       30.41F
IOWA FALLS *     N/A     66  47  50 N12       30.41F
$$

IAZ007>011-017>019-026>030-037>042-050>054-066-291800-
   NORTHEAST IOWA

CITY           SKY/WX    TMP DP  RH WIND       PRES   REMARKS
CEDAR RAPIDS   SUNNY     68  54  60 N14       30.32F
CHARLES CITY * SUNNY     66  48  52 N10G16    30.42S
CLINTON *      SUNNY     68  53  58 N18G25    30.28S
DECORAH *      SUNNY     64  50  59 N14       30.39S
DUBUQUE        SUNNY     66  52  60 N16G24    30.32F
MONTICELLO *   SUNNY     70  50  49 NE14G21   30.31F
OELWEIN *      SUNNY     68  52  56 N14G20    30.37S
WATERLOO       SUNNY     67  49  52 NE14      30.37F
$$

IAZ064-065-067-068-078-291800-
   EAST CENTRAL IOWA

CITY           SKY/WX    TMP DP  RH WIND       PRES   REMARKS
DAVENPORT      SUNNY     68  51  54 N18G24    30.28F
IOWA CITY      SUNNY     69  52  54 N12G21    30.32F
MT. PLEASANT * SUNNY     71  51  48 N15G22    30.28F
MUSCATINE *    SUNNY     70  50  49 N14G23    30.28F
QUAD CITIES    SUNNY     69  52  54 N8        30.26F
$$

IAZ062-063-075>077-085>089-095>099-291800-
   SOUTHEAST IOWA

CITY           SKY/WX    TMP DP  RH WIND       PRES   REMARKS
BURLINGTON     SUNNY     68  52  56 N14G24    30.26F
FAIRFIELD *    SUNNY     68  50  52 N13G20    30.30F
FORT MADISON * SUNNY     70  52  52 N12G17    30.27F
KEOKUK *       SUNNY     68  52  56 N13G20    30.26F
OSKALOOSA *      N/A     69  51  52 N16       30.34S
OTTUMWA        SUNNY     70  51  51 N15       30.33F
WASHINGTON *     N/A    N/A N/A N/A MISG        N/A
$$

ABBREVIATIONS USED IN REMARKS
   TC - TEMPERATURES IN CELSIUS
  WCI - WIND CHILL INDEX
   HX - HEAT INDEX
  VSB - VISIBILITY
$$





USA.gov is the U.S. government's official web portal to all federal, state and local government web resources and services.